Погода в Разумовке

Украина / Запорожская область     47°45′09″N   35°08′17″E
темп.,
°C
ветер,
м/с
пор.,
м/с
влажн.,
%
обл.,
%
осадки,
мм/ч
давл.,
гПа
погр.,
м
24 января, вс
вс2423:00+5ю51291100 0.0 1016264
02:00+4ю51289100 0.0 1015261
05:00+3ююв4109182 0.0 1015197
08:00+4ююв5128891 0.0 1014278
11:00+6ююв71581100 0.0 1015430
14:00+6юв71374100 0.0 1013462
17:00+4юв71572100 0.0 1013384
20:00+4юв61479100 0.0 1012421
25 января, пн
пн2523:00+4юв61292100 0.4 1012275
02:00+5юв61294100 0.9 1011360
05:00+5ююв6139382 0.1 1011359
08:00+6ююв5129286 0.1 1011340
11:00+9ю7127620 0.0 1011661
14:00+11ююв7136844 0.1 1008599
17:00+8юв61377100 0.0 1008468
20:00+7ююв91873100 0.0 1006663
26 января, вт
вт2623:00+7ююв101779100 0.0 1004579
02:00+7ююз101690100 4.1 1004827
05:00+4ююз7148033 0.1 1006656
08:00+3ю6128650 0.1 1009402
11:00+6ю5974100 0.0 1009553
14:00+8ююв81466100 0.0 1007657
17:00+8ююв71783100 0.6 1007645
20:00+7ю61285100 0.9 1007369
27 января, ср
ср2723:00+6ююз2493100 0.1 1008130
02:00+5всв1298100 1.7 100787
05:00+6юв41094100 2.7 1004434
08:00+7юв61390100 4.1 1002449
11:00+8юв81581100 0.7 1001462
14:00+10ююв71372100 0.7 998655
17:00+8ююв61287100 0.9 998369
20:00+8ююв71488100 3.3 998656
28 января, чт
чт2823:00+7ююв71291100 3.4 997452
02:00+7ююв61288100 3.7 998507
05:00+4ю81287100 0.0 999559
08:00+1юз6987100 0.0 1001563
11:00+1зюз6881100 0.0 1003650
14:00+1зюз6774100 0.1 1004881
17:00+1зюз5774100 0.1 1006920
20:000зюз5876100 0.1 1007677